GW3252 Weather Reports


time (UTC)temp
F
wind
direction
speed
knots
gust
knots
rain 1hr
in
rain 24hr
in
rain mn
in
humidity
%
barometer
mb
20260906052436 76 41 0.0 0.0 0.00 0.03 0.00 92 1010.2
20260906051925 76 41 0.0 0.0 0.00 0.03 0.00 92 1010.2
20260906051406 76 41 0.0 0.0 0.00 0.03 0.00 92 1010.2
20260906050906 76 41 0.0 0.0 0.00 0.03 0.00 92 1010.3
20260906050434 76 41 0.0 0.0 0.00 0.03 0.00 92 1010.1
20260906045852 76 41 0.0 0.0 0.00 0.03 0.03 92 1010.2
20260906045607 76 40 0.0 0.0 0.00 0.03 0.03 92 1010.2
20260906044840 76 41 0.0 0.0 0.00 0.03 0.03 92 1010.2
20260906044550 76 41 0.0 0.0 0.00 0.03 0.03 92 1010.1
20260906043815 76 41 0.0 0.0 0.00 0.03 0.03 92 1010.1
20260906043308 77 41 0.0 0.0 0.00 0.03 0.03 92 1010.1
20260906042748 77 41 0.0 0.0 0.00 0.03 0.03 91 1010.1
20260906042221 77 41 0.0 0.0 0.00 0.03 0.03 91 1010.1
20260906041715 77 40 0.0 0.0 0.00 0.03 0.03 91 1010.1
20260906041208 77 41 0.0 0.0 0.00 0.03 0.03 91 1010.1
20260906040707 77 41 0.0 0.0 0.00 0.03 0.03 91 1010.1
20260906040627 77 40 0.0 0.0 0.00 0.03 0.03 91 1010.1
20260906035638 77 41 0.0 0.0 0.00 0.03 0.03 91 1010.2
20260906035411 78 41 0.0 0.0 0.00 0.03 0.03 91 1010.1
20260906034636 78 41 0.0 0.0 0.00 0.03 0.03 91 1010.2
20260906034128 78 41 0.0 0.0 0.00 0.03 0.03 91 1010.2
20260906033625 78 41 0.0 0.0 0.00 0.03 0.03 90 1010.1
20260906033349 78 41 0.0 0.0 0.00 0.03 0.03 90 1010.1
20260906032829 78 40 0.0 0.0 0.00 0.03 0.03 90 1009.9
20260906032107 78 41 0.0 0.0 0.00 0.03 0.03 90 1010.0
20260906031607 78 41 0.0 0.0 0.00 0.03 0.03 90 1010.0
20260906031331 78 41 0.0 0.0 0.00 0.03 0.03 90 1010.0
20260906030605 79 41 0.0 0.0 0.00 0.03 0.03 90 1010.0
20260906030331 79 41 0.0 0.0 0.00 0.03 0.03 89 1009.9
20260906025559 79 41 0.0 0.0 0.00 0.03 0.03 89 1009.9
20260906025117 79 40 0.0 0.0 0.00 0.03 0.03 89 1010.0
20260906024545 79 41 0.0 0.0 0.00 0.03 0.03 89 1010.1
20260906024011 79 41 0.0 0.0 0.00 0.03 0.03 89 1010.0
20260906023506 80 41 0.0 0.0 0.00 0.03 0.03 88 1010.0
20260906022958 80 41 0.0 0.0 0.00 0.03 0.03 88 1010.0
20260906022448 80 41 0.0 0.0 0.00 0.03 0.03 88 1009.9
20260906021941 80 41 0.0 0.0 0.00 0.03 0.03 88 1009.9
20260906021704 80 40 0.0 0.0 0.00 0.03 0.03 88 1009.9
20260906020936 80 40 0.0 0.0 0.00 0.03 0.03 87 1009.8
20260906020426 81 41 0.0 0.0 0.00 0.03 0.03 87 1009.7
20260906015911 81 41 0.0 0.0 0.00 0.03 0.03 87 1009.6
20260906015408 81 41 0.0 0.0 0.00 0.03 0.03 86 1009.7
20260906014906 81 41 0.0 0.0 0.00 0.03 0.03 86 1009.6
20260906014348 82 41 0.0 0.0 0.00 0.03 0.03 85 1009.4
20260906013818 82 40 0.0 0.0 0.00 0.03 0.03 85 1009.5
20260906013312 82 41 0.0 0.0 0.00 0.03 0.03 85 1009.4
20260906012745 83 41 0.0 0.0 0.00 0.03 0.03 84 1009.4
20260906012502 83 41 0.0 0.0 0.00 0.03 0.03 84 1009.4
20260906011724 83 41 0.0 0.0 0.00 0.03 0.03 83 1009.2
20260906011436 84 41 0.0 0.0 0.00 0.03 0.03 82 1009.0
20260906010710 84 41 0.0 0.0 0.00 0.03 0.03 81 1009.0
20260906010207 85 41 0.0 0.0 0.00 0.03 0.03 81 1009.0
20260906005926 85 41 0.0 0.0 0.00 0.03 0.03 81 1009.0
20260906004654 86 41 0.0 0.0 0.00 0.03 0.03 78 1009.0
20260906004156 86 41 0.0 0.0 0.00 0.03 0.03 78 1009.0
20260906003647 87 41 0.0 0.0 0.00 0.03 0.03 77 1009.0
20260906003414 87 41 0.0 0.0 0.00 0.03 0.03 76 1009.0
20260906002647 88 40 0.0 0.0 0.00 0.03 0.03 75 1009.0
20260906002117 89 40 0.0 0.0 0.00 0.03 0.03 73 1009.0
20260906001610 90 41 0.0 0.0 0.00 0.03 0.03 73 1009.1
20260906001548 90 41 0.0 0.0 0.00 0.03 0.03 72 1009.0
20260906000828 91 40 0.0 0.0 0.00 0.03 0.03 70 1009.2
20260906000106 92 41 0.0 0.0 0.00 0.03 0.03 72 1009.2
20260905235557 92 41 0.0 0.0 0.00 0.03 0.03 70 1009.2
20260905235059 92 40 0.0 0.0 0.00 0.03 0.03 68 1009.2
20260905234555 93 40 0.0 0.0 0.00 0.03 0.03 69 1009.2
20260905234056 93 40 0.0 0.0 0.00 0.03 0.03 70 1009.2
20260905233553 93 40 0.0 0.0 0.00 0.03 0.03 71 1009.2
20260905233053 94 40 0.0 0.0 0.00 0.03 0.03 69 1009.3
20260905233036 94 40 0.0 0.0 0.00 0.03 0.03 68 1009.2
20260905232032 94 40 0.0 0.0 0.00 0.03 0.03 68 1009.2
20260905231524 94 40 0.0 0.0 0.00 0.03 0.03 69 1009.3
20260905231019 95 40 0.0 0.0 0.00 0.03 0.03 68 1009.3
20260905230522 95 40 0.0 0.0 0.00 0.03 0.03 67 1009.3
20260905230008 95 40 0.0 0.0 0.00 0.03 0.03 66 1009.3
20260905225506 95 40 0.0 0.0 0.00 0.03 0.03 64 1009.2
20260905225006 95 41 0.0 0.0 0.00 0.03 0.03 66 1009.2
20260905224458 95 40 0.0 0.0 0.00 0.03 0.03 67 1009.2
20260905223959 94 40 0.0 0.0 0.00 0.03 0.03 69 1009.3
20260905223452 94 44 0.0 0.0 0.00 0.03 0.03 69 1009.4
20260905222948 94 44 0.0 0.0 0.00 0.03 0.03 70 1009.3
20260905222427 94 44 0.0 0.0 0.00 0.03 0.03 71 1009.4
20260905221925 94 44 0.0 0.0 0.00 0.03 0.03 70 1009.3
20260905221422 94 44 0.0 0.0 0.00 0.03 0.03 72 1009.4
20260905220919 94 44 0.0 0.0 0.00 0.03 0.03 71 1009.5
20260905220840 94 44 0.0 0.0 0.00 0.03 0.03 69 1009.5
20260905215853 95 44 0.0 0.0 0.00 0.03 0.03 70 1009.4
20260905215352 95 44 0.0 0.0 0.00 0.03 0.03 69 1009.5
20260905214852 95 44 0.0 0.0 0.00 0.03 0.03 67 1009.5
20260905214613 95 44 0.0 0.9 0.00 0.03 0.03 65 1009.5
20260905214049 95 44 0.0 0.9 0.00 0.03 0.03 64 1009.4
20260905213309 94 44 0.0 0.9 0.00 0.03 0.03 73 1009.4
20260905212755 94 45 0.0 0.0 0.03 0.03 0.03 73 1009.5
20260905212244 92 45 0.0 0.0 0.03 0.03 0.03 72 1009.5
20260905211739 91 45 0.0 0.0 0.03 0.03 0.03 78 1009.6
20260905211227 91 45 0.0 0.0 0.03 0.03 0.03 80 1009.7
20260905210718 90 45 0.0 0.9 0.03 0.03 0.03 80 1009.6
20260905210221 90 45 0.0 0.9 0.03 0.03 0.03 79 1009.7
20260905205704 89 45 0.0 0.9 0.03 0.03 0.03 79 1009.8
20260905205204 89 46 0.0 0.9 0.03 0.03 0.03 76 1009.8
20260905204654 90 44 0.0 0.0 0.03 0.03 0.03 73 1010.0
20260905204150 91 44 0.0 0.9 0.03 0.03 0.03 69 1010.3
20260905203626 91 44 0.9 7.8 0.03 0.03 0.03 64 1010.3
20260905203113 93 37 2.6 9.6 0.02 0.02 0.02 60 1010.5
20260905202610 95 83 2.6 11.3 0.00 0.00 0.00 52 1010.4
20260905202108 97 319 1.7 11.3 0.00 0.00 0.00 48 1010.6
20260905201609 98 280 0.9 7.0 0.00 0.00 0.00 48 1010.8
20260905201554 98 279 0.9 3.5 0.00 0.00 0.00 47 1010.5
20260905200605 97 268 0.0 3.5 0.00 0.00 0.00 55 1010.6
20260905200321 96 199 0.0 0.0 0.00 0.00 0.00 51 1010.5
20260905195606 94 286 0.0 3.5 0.00 0.00 0.00 58 1010.4
20260905195057 94 287 0.9 3.5 0.00 0.00 0.00 57 1010.5
20260905194553 93 240 0.0 2.6 0.00 0.00 0.00 58 1010.6
20260905194045 93 232 0.0 1.7 0.00 0.00 0.00 61 1010.8
20260905193547 93 232 0.0 2.6 0.00 0.00 0.00 60 1010.9
20260905193040 94 232 0.0 2.6 0.00 0.00 0.00 58 1011.0
20260905192806 95 213 0.9 3.5 0.00 0.00 0.00 54 1011.0
20260905192036 96 215 1.7 7.8 0.00 0.00 0.00 50 1011.2
20260905191534 98 292 1.7 8.7 0.00 0.00 0.00 49 1011.2
20260905191022 101 264 0.9 8.7 0.00 0.00 0.00 40 1011.4
20260905190522 101 16 1.7 8.7 0.00 0.00 0.00 40 1011.3
20260905190014 102 58 1.7 8.7 0.00 0.00 0.00 42 1011.5
20260905185509 102 282 1.7 7.0 0.00 0.00 0.00 42 1011.3
20260905185233 101 292 1.7 7.0 0.00 0.00 0.00 40 1011.3
20260905184505 102 58 0.9 6.1 0.00 0.00 0.00 41 1011.4
20260905184004 101 188 0.9 3.5 0.00 0.00 0.00 41 1011.5
20260905183727 101 134 0.9 5.2 0.00 0.00 0.00 43 1011.6
20260905182951 101 20 0.9 5.2 0.00 0.00 0.00 42 1011.6
20260905182446 101 50 0.9 5.2 0.00 0.00 0.00 42 1011.6
20260905181943 101 20 1.7 6.1 0.00 0.00 0.00 46 1011.6
20260905181444 100 0 1.7 7.8 0.00 0.00 0.00 46 1011.7
20260905180940 100 15 1.7 7.8 0.00 0.00 0.00 43 1011.7
20260905180429 100 107 1.7 6.1 0.00 0.00 0.00 44 1011.9
20260905175923 100 26 1.7 5.2 0.00 0.00 0.00 45 1011.9
20260905175422 100 86 1.7 5.2 0.00 0.00 0.00 44 1012.0
20260905174921 100 117 0.9 5.2 0.00 0.00 0.00 46 1011.9
20260905174423 100 38 0.9 2.6 0.00 0.00 0.00 47 1012.0
20260905173908 100 80 1.7 6.1 0.00 0.00 0.00 50 1012.0
20260905173406 100 26 1.7 6.1 0.00 0.00 0.00 45 1012.1
20260905172905 100 44 1.7 5.2 0.00 0.00 0.00 45 1012.1
20260905172405 100 26 1.7 5.2 0.00 0.00 0.00 45 1012.0
20260905172344 100 326 0.9 4.3 0.00 0.00 0.00 45 1012.1
20260905171400 99 35 1.7 3.5 0.00 0.00 0.00 45 1012.2
20260905171340 99 179 1.7 6.1 0.00 0.00 0.00 47 1012.3
20260905170400 99 0 1.7 7.8 0.00 0.00 0.00 46 1012.4
20260905165907 99 5 0.9 7.8 0.00 0.00 0.00 47 1012.5
20260905165400 99 71 0.0 3.5 0.00 0.00 0.00 49 1012.4
20260905164858 98 121 0.0 1.7 0.00 0.00 0.00 49 1012.5
20260905164356 98 100 0.9 3.5 0.00 0.00 0.00 51 1012.6
20260905163850 97 167 0.9 5.2 0.00 0.00 0.00 50 1012.5
20260905163341 97 178 1.7 5.2 0.00 0.00 0.00 51 1012.6
20260905162835 96 250 0.9 4.3 0.00 0.00 0.00 51 1012.6
20260905162321 96 277 0.9 4.3 0.00 0.00 0.00 51 1012.8
20260905161822 96 299 0.9 2.6 0.00 0.00 0.00 55 1012.8
20260905161316 96 300 0.9 2.6 0.00 0.00 0.00 54 1012.8
20260905160806 96 271 0.9 2.6 0.00 0.00 0.00 54 1012.8
20260905160304 96 119 0.9 2.6 0.00 0.00 0.00 57 1012.9
20260905155804 95 194 0.9 2.6 0.00 0.00 0.00 55 1013.0
20260905155256 94 174 0.9 2.6 0.00 0.00 0.00 58 1013.1
20260905154753 94 67 0.9 2.6 0.00 0.00 0.00 59 1013.0
20260905154252 93 67 0.9 2.6 0.00 0.00 0.00 60 1012.9
20260905153750 93 230 0.9 2.6 0.00 0.00 0.00 62 1012.9
20260905153232 92 225 0.9 2.6 0.00 0.00 0.00 61 1012.9
20260905152959 92 204 0.9 2.6 0.00 0.00 0.00 63 1013.0
20260905152217 91 236 0.0 2.6 0.00 0.00 0.00 63 1013.0
20260905151717 91 242 0.0 0.0 0.00 0.00 0.00 64 1013.0
20260905151220 90 242 0.0 0.0 0.00 0.00 0.00 65 1013.0
20260905150658 90 242 0.0 0.0 0.00 0.00 0.00 65 1013.0
20260905150151 89 242 0.0 0.0 0.00 0.00 0.00 68 1013.1
20260905145634 89 241 0.0 0.0 0.00 0.00 0.00 68 1013.0
20260905145127 89 240 0.0 0.0 0.00 0.00 0.00 70 1012.9
20260905144619 88 240 0.0 0.0 0.00 0.00 0.00 69 1012.9
20260905144114 87 154 0.0 0.0 0.00 0.00 0.00 72 1012.9
20260905143837 86 154 0.0 0.0 0.00 0.00 0.00 74 1012.8
20260905143113 85 154 0.0 0.0 0.00 0.00 0.00 75 1012.8
20260905142557 85 154 0.0 0.0 0.00 0.00 0.00 78 1012.7
20260905142057 84 154 0.0 0.0 0.00 0.00 0.00 83 1012.7
20260905141552 82 154 0.0 0.0 0.00 0.00 0.00 86 1012.7
20260905141320 81 154 0.0 0.0 0.00 0.00 0.00 91 1012.6
20260905140541 80 154 0.0 0.0 0.00 0.00 0.00 93 1012.5
20260905140038 79 154 0.0 0.0 0.00 0.00 0.00 94 1012.5
20260905135541 78 154 0.0 0.0 0.00 0.00 0.00 95 1012.4
20260905135036 77 154 0.0 0.0 0.00 0.00 0.00 95 1012.4
20260905134532 77 154 0.0 0.0 0.00 0.00 0.00 95 1012.4
20260905134011 76 154 0.0 0.0 0.00 0.00 0.00 95 1012.4
20260905133501 76 154 0.0 0.0 0.00 0.00 0.00 95 1012.3
20260905133230 76 154 0.0 0.0 0.00 0.00 0.00 95 1012.4
20260905132454 76 154 0.0 0.0 0.00 0.00 0.00 96 1012.3
20260905131941 75 154 0.0 0.0 0.00 0.00 0.00 95 1012.4
20260905131651 75 154 0.0 0.0 0.00 0.00 0.00 96 1012.4
20260905130906 74 154 0.0 0.0 0.00 0.00 0.00 95 1012.4
20260905130403 74 154 0.0 0.0 0.00 0.00 0.00 95 1012.5
20260905125854 74 154 0.0 0.0 0.00 0.00 0.00 95 1012.4
20260905125346 73 154 0.0 0.0 0.00 0.00 0.00 95 1012.5
20260905124833 73 154 0.0 0.0 0.00 0.00 0.00 95 1012.4
20260905124325 73 154 0.0 0.0 0.00 0.00 0.00 95 1012.4
20260905123825 73 154 0.0 0.0 0.00 0.00 0.00 95 1012.3
20260905123746 73 154 0.0 0.0 0.00 0.00 0.00 95 1012.3
20260905122740 72 154 0.0 0.0 0.00 0.00 0.00 95 1012.3
20260905122238 72 154 0.0 0.0 0.00 0.00 0.00 95 1012.2
20260905121732 72 154 0.0 0.0 0.00 0.00 0.00 95 1012.2
20260905121502 72 154 0.0 0.0 0.00 0.00 0.00 94 1012.2
20260905120941 72 154 0.0 0.0 0.00 0.00 0.00 94 1012.2
20260905120209 72 154 0.0 0.0 0.00 0.00 0.00 94 1012.2
20260905115709 72 154 0.0 0.0 0.00 0.00 0.00 94 1012.1
20260905115152 72 154 0.0 0.0 0.00 0.00 0.00 94 1012.2
20260905114655 72 154 0.0 0.0 0.00 0.00 0.00 94 1012.1
20260905114120 72 154 0.0 0.0 0.00 0.00 0.00 94 1011.9
20260905113549 72 154 0.0 0.0 0.00 0.00 0.00 94 1011.9
20260905113224 72 154 0.0 0.0 0.00 0.00 0.00 94 1011.8
20260905112458 72 154 0.0 0.0 0.00 0.00 0.00 94 1011.8
20260905111944 72 154 0.0 0.0 0.00 0.00 0.00 94 1011.8
20260905111407 72 154 0.0 0.0 0.00 0.00 0.00 94 1011.8
20260905110901 72 154 0.0 0.0 0.00 0.00 0.00 94 1011.8
20260905110359 72 154 0.0 0.0 0.00 0.00 0.00 94 1011.7
20260905105854 72 154 0.0 0.0 0.00 0.00 0.00 94 1011.7
20260905105341 72 154 0.0 0.0 0.00 0.00 0.00 94 1011.6
20260905104837 72 154 0.0 0.0 0.00 0.00 0.00 94 1011.6
20260905104300 72 154 0.0 0.0 0.00 0.00 0.00 94 1011.5
20260905103757 72 154 0.0 0.0 0.00 0.00 0.00 93 1011.5
20260905103252 72 154 0.0 0.0 0.00 0.00 0.00 93 1011.5
20260905102934 72 154 0.0 0.0 0.00 0.00 0.00 93 1011.5
20260905102204 72 154 0.0 0.0 0.00 0.00 0.00 93 1011.5
20260905101701 73 154 0.0 0.0 0.00 0.00 0.00 93 1011.5
20260905101419 73 154 0.0 0.0 0.00 0.00 0.00 93 1011.5
20260905100658 73 154 0.0 0.0 0.00 0.00 0.00 93 1011.5
20260905100155 73 154 0.0 0.0 0.00 0.00 0.00 93 1011.6
20260905095651 73 154 0.0 0.0 0.00 0.00 0.00 93 1011.6
20260905095143 73 154 0.0 0.0 0.00 0.00 0.00 93 1011.6
20260905094628 73 154 0.0 0.0 0.00 0.00 0.00 93 1011.5
20260905094124 73 154 0.0 0.0 0.00 0.00 0.00 93 1011.5
20260905093617 73 154 0.0 0.0 0.00 0.00 0.00 93 1011.4
20260905093107 73 154 0.0 0.0 0.00 0.00 0.00 93 1011.4
20260905092558 73 154 0.0 0.0 0.00 0.00 0.00 93 1011.4
20260905092059 73 154 0.0 0.0 0.00 0.00 0.00 93 1011.4
20260905091549 73 154 0.0 0.0 0.00 0.00 0.00 93 1011.5
20260905091002 73 154 0.0 0.0 0.00 0.00 0.00 93 1011.4
20260905090506 73 154 0.0 0.0 0.00 0.00 0.00 93 1011.5
20260905090000 73 154 0.0 0.0 0.00 0.00 0.00 93 1011.5
20260905085502 73 154 0.0 0.0 0.00 0.00 0.00 93 1011.6
20260905085002 73 154 0.0 0.0 0.00 0.00 0.00 93 1011.5
20260905084504 73 154 0.0 0.0 0.00 0.00 0.00 92 1011.4
20260905084001 73 154 0.0 0.0 0.00 0.00 0.00 92 1011.4
20260905083942 73 154 0.0 0.0 0.00 0.00 0.00 92 1011.4
20260905082952 73 154 0.0 0.0 0.00 0.00 0.00 92 1011.4
20260905082722 73 154 0.0 0.0 0.00 0.00 0.00 92 1011.5
20260905081935 73 154 0.0 0.0 0.00 0.00 0.00 92 1011.4
20260905081420 73 154 0.0 0.0 0.00 0.00 0.00 92 1011.5
20260905080906 73 154 0.0 0.0 0.00 0.00 0.00 92 1011.6
20260905080404 74 154 0.0 0.0 0.00 0.00 0.00 92 1011.5
20260905075903 74 154 0.0 0.0 0.00 0.00 0.00 92 1011.5
20260905075852 74 154 0.0 0.0 0.00 0.00 0.00 92 1011.5
20260905074855 74 154 0.0 0.0 0.00 0.00 0.00 92 1011.5
20260905074351 74 154 0.0 0.0 0.00 0.00 0.00 92 1011.5
20260905074105 74 154 0.0 0.0 0.00 0.00 0.00 91 1011.5
20260905073339 74 154 0.0 0.0 0.00 0.00 0.00 91 1011.5
20260905072806 74 154 0.0 0.0 0.00 0.00 0.00 91 1011.4
20260905072525 74 154 0.0 0.0 0.00 0.00 0.00 91 1011.6
20260905072001 74 154 0.0 0.0 0.00 0.00 0.00 91 1011.5
20260905071208 74 154 0.0 0.0 0.00 0.00 0.00 91 1011.6
20260905070702 74 154 0.0 0.0 0.00 0.00 0.00 91 1011.7
20260905070203 74 154 0.0 0.0 0.00 0.00 0.00 91 1011.7
20260905065825 74 154 0.0 0.0 0.00 0.00 0.00 91 1011.7
20260905065103 74 154 0.0 0.0 0.00 0.00 0.00 91 1011.6
20260905064607 74 154 0.0 0.0 0.00 0.00 0.00 91 1011.7
20260905064103 74 154 0.0 0.0 0.00 0.00 0.00 90 1011.8
20260905063809 75 154 0.0 0.0 0.00 0.00 0.00 90 1011.7
20260905063046 75 154 0.0 0.0 0.00 0.00 0.00 90 1011.7
20260905062532 75 154 0.0 0.0 0.00 0.00 0.00 90 1011.7
20260905062021 75 154 0.0 0.0 0.00 0.00 0.00 90 1011.7
20260905061508 75 154 0.0 0.0 0.00 0.00 0.00 90 1011.7
20260905061004 75 154 0.0 0.0 0.00 0.00 0.00 90 1011.6
20260905060502 75 154 0.0 0.0 0.00 0.00 0.00 90 1011.6
20260905060439 75 154 0.0 0.0 0.00 0.00 0.00 89 1011.7
20260905055407 75 154 0.0 0.0 0.00 0.00 0.00 89 1011.6
20260905054858 75 154 0.0 0.0 0.00 0.00 0.00 89 1011.6
20260905054332 76 154 0.0 0.0 0.00 0.00 0.00 89 1011.7
20260905053814 76 154 0.0 0.0 0.00 0.00 0.00 89 1011.7
20260905053312 76 154 0.0 0.0 0.00 0.00 0.00 89 1011.7
20260905052809 76 154 0.0 0.0 0.00 0.00 0.00 88 1011.6